Hourly Weather Albena

Today, 30 September, Wednesday

Time Temperature Precipitation Wind Pressure Humidity
00:00 +15°C° 0 mm 7 mps 741 mmHg 60%
01:00 +15°C° 0 mm 8 mps 741 mmHg 61%
02:00 +13°C° 0 mm 8 mps 741 mmHg 63%
03:00 +13°C° 0 mm 8 mps 741 mmHg 64%
04:00 +12°C° 0 mm 9 mps 741 mmHg 66%
05:00 +12°C° 0 mm 9 mps 741 mmHg 68%
06:00 +12°C° 0 mm 9 mps 741 mmHg 65%
07:00 +13°C° 0 mm 9 mps 741 mmHg 63%
08:00 +13°C° 0 mm 9 mps 741 mmHg 60%
09:00 +16°C° 0 mm 9 mps 741 mmHg 55%
10:00 +17°C° 0 mm 8 mps 741 mmHg 50%
11:00 +18°C° 0 mm 8 mps 741 mmHg 45%
12:00 +20°C° 0 mm 7 mps 741 mmHg 43%
13:00 +20°C° 0 mm 7 mps 741 mmHg 41%
14:00 +21°C° 0 mm 7 mps 740 mmHg 39%
15:00 +21°C° 0 mm 7 mps 740 mmHg 40%
16:00 +21°C° 0 mm 7 mps 740 mmHg 40%
17:00 +20°C° 0 mm 6 mps 740 mmHg 40%
18:00 +20°C° 0 mm 6 mps 740 mmHg 42%
19:00 +19°C° 0 mm 6 mps 740 mmHg 44%
20:00 +17°C° 0 mm 6 mps 740 mmHg 46%
21:00 +16°C° 0 mm 5 mps 740 mmHg 51%
22:00 +15°C° 0 mm 5 mps 740 mmHg 56%
23:00 +13°C° 0 mm 4 mps 740 mmHg 61%

Tomorrow, 1 October, Thursday

Time Temperature Precipitation Wind Pressure Humidity
00:00 +13°C° 0 mm 4 mps 740 mmHg 63%
01:00 +13°C° 0 mm 4 mps 740 mmHg 65%
02:00 +13°C° 0 mm 4 mps 740 mmHg 67%
03:00 +14°C° 0 mm 4 mps 740 mmHg 66%
04:00 +14°C° 0 mm 3 mps 740 mmHg 64%
05:00 +14°C° 0 mm 3 mps 740 mmHg 62%
06:00 +16°C° 0.1 mm 3 mps 740 mmHg 61%
07:00 +16°C° 0.1 mm 3 mps 740 mmHg 60%
08:00 +16°C° 0.1 mm 2 mps 740 mmHg 58%
09:00 +18°C° 0 mm 3 mps 740 mmHg 53%
10:00 +19°C° 0 mm 4 mps 740 mmHg 48%
11:00 +21°C° 0 mm 4 mps 740 mmHg 43%
12:00 +20°C° 0 mm 4 mps 740 mmHg 46%
13:00 +20°C° 0 mm 4 mps 740 mmHg 49%
14:00 +19°C° 0 mm 4 mps 740 mmHg 52%
15:00 +19°C° 0 mm 4 mps 740 mmHg 52%
16:00 +19°C° 0 mm 4 mps 740 mmHg 52%
17:00 +19°C° 0 mm 4 mps 741 mmHg 51%
18:00 +18°C° 0 mm 3 mps 741 mmHg 55%
19:00 +17°C° 0 mm 2 mps 741 mmHg 59%
20:00 +18°C° 0 mm 1 mps 742 mmHg 63%
21:00 +18°C° 0 mm 1 mps 742 mmHg 63%
22:00 +17°C° 0 mm 2 mps 742 mmHg 64%
23:00 +17°C° 0 mm 2 mps 742 mmHg 64%

Day after tomorrow, 2 October, Friday

Time Temperature Precipitation Wind Pressure Humidity
00:00 +16°C° 0.1 mm 2 mps 742 mmHg 70%
01:00 +16°C° 0.1 mm 3 mps 742 mmHg 75%
02:00 +14°C° 0.1 mm 3 mps 742 mmHg 81%
03:00 +14°C° 0.1 mm 3 mps 742 mmHg 82%
04:00 +15°C° 0.1 mm 2 mps 742 mmHg 83%
05:00 +15°C° 0.1 mm 2 mps 742 mmHg 85%
06:00 +16°C° 0 mm 2 mps 743 mmHg 77%
07:00 +17°C° 0 mm 2 mps 743 mmHg 70%
08:00 +18°C° 0 mm 2 mps 743 mmHg 63%
09:00 +20°C° 0 mm 2 mps 743 mmHg 54%
10:00 +22°C° 0 mm 3 mps 744 mmHg 44%
11:00 +26°C° 0 mm 3 mps 744 mmHg 35%
12:00 +26°C° 0 mm 4 mps 744 mmHg 34%
13:00 +26°C° 0 mm 4 mps 744 mmHg 33%
14:00 +27°C° 0 mm 5 mps 744 mmHg 32%
15:00 +26°C° 0 mm 5 mps 744 mmHg 37%
16:00 +25°C° 0 mm 5 mps 744 mmHg 42%
17:00 +23°C° 0 mm 5 mps 744 mmHg 46%
18:00 +21°C° 0 mm 4 mps 744 mmHg 55%
19:00 +20°C° 0 mm 4 mps 745 mmHg 64%
20:00 +18°C° 0 mm 4 mps 745 mmHg 73%
21:00 +18°C° 0 mm 4 mps 745 mmHg 75%
22:00 +18°C° 0 mm 4 mps 745 mmHg 78%
23:00 +18°C° 0 mm 4 mps 745 mmHg 81%

3 October, Saturday

Time Temperature Precipitation Wind Pressure Humidity
00:00 +18°C° 0 mm 4 mps 745 mmHg 81%
01:00 +17°C° 0 mm 3 mps 745 mmHg 81%
02:00 +17°C° 0 mm 3 mps 745 mmHg 81%
03:00 +17°C° 0 mm 3 mps 745 mmHg 77%
04:00 +17°C° 0 mm 3 mps 746 mmHg 73%
05:00 +16°C° 0 mm 2 mps 746 mmHg 69%
06:00 +18°C° 0 mm 3 mps 746 mmHg 62%
07:00 +19°C° 0 mm 3 mps 746 mmHg 56%
08:00 +20°C° 0 mm 3 mps 746 mmHg 50%
09:00 +22°C° 0 mm 4 mps 746 mmHg 44%
10:00 +25°C° 0 mm 5 mps 746 mmHg 38%
11:00 +27°C° 0 mm 5 mps 746 mmHg 33%
12:00 +27°C° 0 mm 6 mps 746 mmHg 33%
13:00 +28°C° 0 mm 6 mps 746 mmHg 32%
14:00 +28°C° 0 mm 6 mps 746 mmHg 32%
15:00 +27°C° 0 mm 6 mps 746 mmHg 38%
16:00 +25°C° 0 mm 5 mps 745 mmHg 45%
17:00 +23°C° 0 mm 5 mps 745 mmHg 51%
18:00 +22°C° 0 mm 5 mps 746 mmHg 61%
19:00 +20°C° 0 mm 4 mps 746 mmHg 70%
20:00 +19°C° 0 mm 4 mps 746 mmHg 80%
21:00 +18°C° 0 mm 4 mps 746 mmHg 82%
22:00 +18°C° 0 mm 4 mps 746 mmHg 83%
23:00 +18°C° 0 mm 4 mps 746 mmHg 85%

4 October, Sunday

Time Temperature Precipitation Wind Pressure Humidity
00:00 +18°C° 0 mm 4 mps 746 mmHg 85%
01:00 +18°C° 0 mm 4 mps 746 mmHg 86%
02:00 +18°C° 0 mm 3 mps 746 mmHg 87%
03:00 +17°C° 0 mm 3 mps 746 mmHg 86%
04:00 +17°C° 0 mm 3 mps 746 mmHg 86%
05:00 +17°C° 0 mm 3 mps 745 mmHg 85%
06:00 +18°C° 0 mm 4 mps 746 mmHg 76%
07:00 +20°C° 0 mm 4 mps 746 mmHg 68%
08:00 +21°C° 0 mm 4 mps 746 mmHg 59%
09:00 +23°C° 0 mm 5 mps 746 mmHg 52%
10:00 +26°C° 0 mm 6 mps 746 mmHg 44%
11:00 +28°C° 0 mm 6 mps 746 mmHg 37%
12:00 +28°C° 0 mm 6 mps 746 mmHg 37%
13:00 +28°C° 0 mm 6 mps 746 mmHg 37%
14:00 +29°C° 0 mm 6 mps 746 mmHg 37%
15:00 +27°C° 0 mm 6 mps 745 mmHg 42%
16:00 +26°C° 0 mm 5 mps 745 mmHg 48%
17:00 +23°C° 0 mm 5 mps 745 mmHg 53%
18:00 +22°C° 0 mm 4 mps 745 mmHg 61%
19:00 +21°C° 0 mm 4 mps 745 mmHg 69%
20:00 +20°C° 0 mm 4 mps 746 mmHg 77%
21:00 +20°C° 0 mm 4 mps 746 mmHg 77%
22:00 +20°C° 0 mm 4 mps 745 mmHg 77%
23:00 +20°C° 0 mm 4 mps 745 mmHg 77%

5 October, Monday

Time Temperature Precipitation Wind Pressure Humidity
00:00 +20°C° 0 mm 5 mps 745 mmHg 77%
01:00 +20°C° 0 mm 5 mps 745 mmHg 77%
02:00 +19°C° 0 mm 5 mps 745 mmHg 76%
03:00 +19°C° 0 mm 5 mps 744 mmHg 76%
04:00 +19°C° 0 mm 4 mps 744 mmHg 75%
05:00 +19°C° 0 mm 4 mps 744 mmHg 75%
06:00 +21°C° 0 mm 4 mps 744 mmHg 67%
07:00 +22°C° 0 mm 4 mps 744 mmHg 59%
08:00 +23°C° 0 mm 4 mps 745 mmHg 51%
09:00 +26°C° 0 mm 5 mps 745 mmHg 45%
10:00 +28°C° 0 mm 5 mps 745 mmHg 39%
11:00 +30°C° 0 mm 5 mps 745 mmHg 34%
12:00 +32°C° 0 mm 5 mps 745 mmHg 33%
13:00 +32°C° 0 mm 4 mps 745 mmHg 31%
14:00 +33°C° 0 mm 4 mps 744 mmHg 30%
15:00 +30°C° 0 mm 4 mps 744 mmHg 35%
16:00 +29°C° 0 mm 4 mps 744 mmHg 40%
17:00 +27°C° 0 mm 4 mps 744 mmHg 44%
18:00 +26°C° 0 mm 3 mps 744 mmHg 49%
19:00 +24°C° 0 mm 3 mps 744 mmHg 54%
20:00 +22°C° 0 mm 3 mps 744 mmHg 60%
21:00 +22°C° 0 mm 3 mps 744 mmHg 61%
22:00 +22°C° 0 mm 4 mps 744 mmHg 63%
23:00 +22°C° 0 mm 4 mps 744 mmHg 64%
Show more